Regional Weather Roundup
Issued by NWS Midland/Odessa, TX

Skip options and go directly to product.
Home | Oldest Version | Previous Version | Current Version | All | Graphics & Text | Save Text | Print | Product List | Glossary On

Skip product version selection by date and time.   
784
ASUS44 KMAF 281610
RWRMAF
MIDLAND AREA WEATHER ROUNDUP
NATIONAL WEATHER SERVICE MIDLAND TX
1100 AM CDT TUE JUN 28 2016

...IN SOUTHWEST TEXAS AND SOUTHEAST NEW MEXICO...

CITY           SKY/WX    TMP DP  RH WIND       PRES   REMARKS
ALPINE         CLOUDY    73  63  70 E8        30.35S
ANDREWS        FAIR      80  64  58 E8        30.27S
ARTESIA        PTSUNNY   75  64  69 CALM      30.30S
BIG SPRING     SUNNY     80  64  57 SE7       30.25S
CARLSBAD       MOSUNNY   78  66  66 VRB5      30.25S
DRYDEN           N/A     85  68  56 SE9       30.15F
FORT STOCKTON  SUNNY     82  66  58 SE13G23   30.21F
GUAD PASS      FOG       63  32  31 NE25      30.35F VSB 1/4
HOBBS          MOSUNNY   77  63  61 E7        30.31R
MARFA          CLOUDY   N/A N/A N/A E9        30.33S
MIDLAND AIRPK  CLOUDY    82  65  56 S5        30.26R
MIDLAND INTL   CLOUDY    79  66  64 SW6       30.24R
ODESSA         CLOUDY    79  66  64 SW6       30.26R
PECOS          SUNNY     83  67  57 E9        30.20F
PRESIDIO       PTSUNNY   79  65  62 NE10      30.19S
SEMINOLE       CLOUDY    81  61  49 NE7       30.28S
SNYDER           N/A     83  63  51 N6        30.23S
WINK           CLOUDY    80  67  64 SE9       30.22R
$$
...OTHER STATIONS IN TEXAS...

CITY           SKY/WX    TMP DP  RH WIND       PRES   REMARKS
ABILENE        CLOUDY    88  67  49 CALM      30.19R
AMARILLO       SUNNY     84  57  39 NW6       30.30F
AUSTIN         MOSUNNY   92  71  50 NW3       30.07S
BROWNSVILLE    SUNNY     87  77  72 NW3       30.04S
CORPUS CHRISTI MOSUNNY   89  73  59 W6        30.05S
DALLAS FTW     PTSUNNY   91  71  51 N8        30.09S
DEL RIO        SUNNY     87  69  54 S6        30.10F
EL PASO        PTSUNNY   76  61  59 SE7       30.24S
HOUSTON INT    MOSUNNY   90  74  59 NW7       30.05R
LUBBOCK        MOSUNNY   85  59  41 VRB3      30.28S
SAN ANGELO     MOSUNNY   85  70  60 W7        30.18S
SAN ANTONIO    MOSUNNY   88  71  57 VRB6      30.09F
WACO           SUNNY     92  72  51 N8        30.08F
WICHITA FALLS  NOT AVBL
$$
...OTHER LOCATIONS IN NEW MEXICO...

CITY           SKY/WX    TMP DP  RH WIND       PRES   REMARKS
ALAMAGORDO     CLOUDY    73  59  60 E3        30.29S
ALBUQUERQUE    MOSUNNY   79  54  41 N9        30.38S
CANNON AFB     SUNNY     77  58  52 VRB5      30.34F
CLOVIS         SUNNY     77  57  50 W5        30.34F
HOLLOMAN AFB   CLOUDY    77  58  51 SW6       30.26S
ROSWELL        PTSUNNY   77  61  57 E7        30.30S
RUIDOSO        LGT RAIN  66  55  68 E10       30.49S
SANTA FE       SUNNY     74  52  46 CALM      30.44F
TRUTH OR CONSE MOSUNNY   78  55  44 VRB5      30.31F
TUCUMCARI      SUNNY     81  56  42 CALM      30.31F
$$

USA.gov is the U.S. government's official web portal to all federal, state and local government web resources and services.